Tracking 25709 objects as of 23-May-2022
HD Live streaming from Space Station
objects crossing your sky now

SPACEBEE-49

Track SPACEBEE-49 now!
10-day predictions


NORAD ID: 47432
Int'l Code: 2021-006V
Perigee: 515.1 km
Apogee: 521.8 km
Inclination: 97.4 °
Period: 94.8 minutes
Semi major axis: 6889 km
RCS: Unknown
Launch date: January 24, 2021
Source: United States (US)
Launch site: AIR FORCE EASTERN TEST RANGE (AFETR)
aabbcc
Your satellite tracking list
Your tracking list is empty




NASA's NSSDC Master Catalog

Two Line Element Set (TLE):
1 47432U 21006V   22143.74975318  .00029216  00000-0  14273-2 0  9994
2 47432  97.4499 203.6412 0004885  30.7992 329.3527 15.18194561 73526
Source of the keplerian elements: AFSPC